Tomahawk, WI

3:45 AM CDT on October 17, 2017 (GMT -0500)
Tomahawk

Weather History for KTKV - October, 2011

Change the Weather History Date:

Thursday, October 13, 2011

  Actual Average (KRHI) Record (KRHI)
Temperature  
Mean Temperature 53 °F -  
Max Temperature 55 °F 55 °F 81 °F (1956)
Min Temperature 51 °F 35 °F 19 °F (1993)
Degree Days  
Heating Degree Days 12    
Growing Degree Days 3 (Base 50)    
Moisture  
Dew Point 52 °F    
Average Humidity 94    
Maximum Humidity 96    
Minimum Humidity 92    
Precipitation  
Precipitation 1.79 in - - ()
Sea Level Pressure  
Sea Level Pressure 29.56 in    
Wind  
Wind Speed 2 mph (SSE)    
Max Wind Speed 14 mph    
Max Gust Speed 18 mph    
Visibility 4 miles    
Events Rain    
Averages and records for this station are not official NWS values.
T = Trace of Precipitation, MM = Missing Value Source: NWS Daily Summary

Daily Weather History Graph

Daily Weather History Graph

Search for Another Location

Airport or City:

Trip Planner

Search our weather history database for the weather conditions in past years. The results will help you decide how hot, cold, wet, or windy it might be!

Date:

Astronomy

Oct. 13, 2011 Rise Set
Actual Time 7:12 AM CDT 6:17 PM CDT
Civil Twilight 6:42 AM CDT 6:47 PM CDT
Nautical Twilight 6:08 AM CDT 7:21 PM CDT
Astronomical Twilight 5:34 AM CDT 7:55 PM CDT
Moon 6:44 PM CDT (10/13) 8:52 AM CDT (10/13)
Length of Visible Light 12h 04m
Length of Day
11h 05m
Full, 98% of the Moon is Illuminated
Oct 13
Full
Oct 19
Last Quarter
Oct 26
New
Nov 2
First Quarter
Nov 10
Full

Hourly Weather History & Observations

Time (CDT) Temp. Dew Point Humidity Pressure Visibility Wind Dir Wind Speed Gust Speed Precip Events Conditions
12:15 AM 55.8 °F 54.0 °F 94% 29.68 in 4.0 mi Calm Calm - 0.02 in Rain Light Rain
12:35 AM 55.6 °F 54.1 °F 95% 29.67 in 2.5 mi Calm Calm - 0.09 in Rain Light Rain
12:55 AM 55.6 °F 54.3 °F 96% 29.66 in 3.0 mi Calm Calm - 0.14 in Rain Light Rain
1:15 AM 55.4 °F 54.1 °F 96% 29.66 in 3.0 mi Calm Calm - 0.03 in Rain Rain
1:35 AM 54.7 °F 53.2 °F 95% 29.65 in 2.5 mi East 3.5 mph - 0.13 in Rain Heavy Rain
1:55 AM 54.1 °F 52.7 °F 95% 29.65 in 2.5 mi Calm Calm - 0.21 in Rain Light Rain
2:15 AM 53.8 °F 52.3 °F 95% 29.65 in 3.0 mi ESE 4.6 mph - 0.02 in Rain Heavy Rain
2:35 AM 53.6 °F 52.0 °F 94% 29.64 in 3.0 mi East 4.6 mph - 0.04 in Rain Light Rain
2:55 AM 53.6 °F 51.8 °F 94% 29.63 in 3.0 mi Calm Calm - 0.07 in Rain Rain
3:15 AM 53.4 °F 51.8 °F 94% 29.63 in 2.5 mi Calm Calm - 0.05 in Rain Rain
3:35 AM 53.4 °F 51.8 °F 94% 29.62 in 2.0 mi Calm Calm - 0.14 in Rain Rain
3:55 AM 53.2 °F 51.8 °F 95% 29.61 in 2.0 mi ESE 3.5 mph - 0.22 in Rain Rain
4:15 AM 53.2 °F 51.8 °F 95% 29.61 in 2.5 mi ESE 4.6 mph - 0.05 in Rain Rain
4:35 AM 53.2 °F 51.8 °F 95% 29.60 in 2.0 mi Calm Calm - 0.07 in Rain Light Rain
4:55 AM 53.1 °F 51.8 °F 95% 29.60 in 2.5 mi Calm Calm - 0.09 in Rain Light Rain
5:15 AM 53.1 °F 51.8 °F 95% 29.60 in 2.5 mi East 3.5 mph - 0.01 in Rain Light Rain
5:35 AM 52.9 °F 51.4 °F 95% 29.59 in 2.5 mi East 4.6 mph - 0.04 in Rain Rain
5:55 AM 52.9 °F 51.3 °F 94% 29.59 in 2.5 mi East 3.5 mph - 0.05 in Rain Light Rain
6:15 AM 52.9 °F 51.3 °F 94% 29.58 in 3.0 mi ESE 4.6 mph - 0.03 in Rain Light Rain
6:35 AM 52.7 °F 51.1 °F 94% 29.58 in 4.0 mi ESE 3.5 mph - 0.04 in   Drizzle
6:55 AM 52.7 °F 51.1 °F 94% 29.57 in 4.0 mi ESE 3.5 mph - 0.04 in   Light Drizzle
7:15 AM 52.7 °F 50.9 °F 94% 29.57 in 3.0 mi ESE 3.5 mph - N/A Rain Rain
7:35 AM 52.5 °F 50.9 °F 94% 29.57 in 3.0 mi Calm Calm - 0.01 in Rain Light Rain
7:55 AM 52.7 °F 51.1 °F 94% 29.57 in 2.0 mi Calm Calm - 0.02 in Rain Light Rain
8:15 AM 52.7 °F 51.1 °F 94% 29.57 in 2.0 mi Calm Calm - 0.02 in Rain Rain
8:35 AM 52.7 °F 51.1 °F 94% 29.56 in 2.0 mi Calm Calm - 0.05 in Rain Light Rain
9:15 AM 52.9 °F 51.8 °F 96% 29.56 in 2.0 mi SE 3.5 mph - 0.02 in Rain Light Rain
9:35 AM 53.1 °F 51.8 °F 95% 29.55 in 2.5 mi SE 4.6 mph - 0.04 in Rain Rain
9:55 AM 53.4 °F 52.0 °F 95% 29.55 in 2.0 mi SE 3.5 mph - 0.05 in Rain Rain
10:15 AM 53.8 °F 52.3 °F 95% 29.54 in 2.5 mi SE 4.6 mph - 0.01 in Rain Rain
10:35 AM 54.0 °F 52.7 °F 95% 29.54 in 2.5 mi SSE 4.6 mph - 0.02 in Rain Rain
10:55 AM 54.3 °F 52.9 °F 95% 29.54 in 2.5 mi SSE 6.9 mph - 0.03 in Rain Rain
11:15 AM 54.5 °F 52.9 °F 94% 29.53 in 2.0 mi SE 3.5 mph - 0.01 in Rain Light Rain
11:35 AM 54.5 °F 52.9 °F 94% 29.54 in 2.0 mi South 3.5 mph - 0.07 in Rain Heavy Rain
11:55 AM 54.0 °F 52.5 °F 95% 29.53 in 1.5 mi Calm Calm - 0.31 in Rain Heavy Rain
12:15 PM 53.8 °F 52.2 °F 94% 29.54 in 2.5 mi Calm Calm - 0.06 in Rain Rain
12:35 PM 54.0 °F 52.2 °F 94% 29.53 in 4.0 mi Calm Calm - 0.15 in Rain Rain
12:55 PM 54.1 °F 52.7 °F 95% 29.51 in 5.0 mi West 5.8 mph - 0.18 in Rain Light Rain
1:15 PM 54.0 °F 52.5 °F 95% 29.50 in 5.0 mi WNW 5.8 mph - 0.01 in Rain Light Rain
1:35 PM 54.5 °F 52.7 °F 94% 29.50 in 5.0 mi WNW 3.5 mph - 0.04 in Rain Light Rain
1:55 PM 54.5 °F 52.5 °F 93% 29.49 in 5.0 mi WNW 3.5 mph - 0.06 in Rain Light Rain
2:15 PM 54.5 °F 52.3 °F 92% 29.49 in 7.0 mi NW 4.6 mph - 0.01 in Rain Light Rain
2:35 PM 54.3 °F 52.0 °F 92% 29.49 in 5.0 mi WNW 4.6 mph - 0.01 in Rain Light Rain
2:55 PM 54.0 °F 51.6 °F 92% 29.49 in 4.0 mi Calm Calm - 0.03 in Rain Light Rain
3:15 PM 54.0 °F 52.0 °F 93% 29.49 in 4.0 mi Calm Calm - 0.01 in Rain Light Rain
3:35 PM 54.0 °F 52.2 °F 94% 29.48 in 4.0 mi Calm Calm - 0.03 in Rain Rain
3:55 PM 54.1 °F 52.5 °F 94% 29.48 in 4.0 mi Calm Calm - 0.03 in   Drizzle
4:15 PM 53.8 °F 52.0 °F 94% 29.48 in 3.0 mi WNW 9.2 mph 18.4 mph 0.15 in Rain Rain
4:35 PM 53.1 °F 51.1 °F 93% 29.48 in 5.0 mi WNW 8.1 mph - 0.18 in Rain Light Rain
4:55 PM 52.5 °F 50.5 °F 93% 29.49 in 2.5 mi WNW 13.8 mph 17.3 mph 0.21 in Rain Light Rain
5:15 PM 52.0 °F 50.2 °F 94% 29.49 in 5.0 mi WNW 10.4 mph - N/A   Overcast
5:35 PM 51.8 °F 50.0 °F 94% 29.49 in 5.0 mi WNW 9.2 mph - N/A   Overcast
5:55 PM 51.6 °F 49.6 °F 93% 29.49 in 2.5 mi WNW 8.1 mph 17.3 mph N/A   Drizzle
6:15 PM 51.4 °F 49.6 °F 94% 29.49 in 4.0 mi WNW 9.2 mph - N/A   Overcast
6:35 PM 51.3 °F 49.3 °F 93% 29.49 in 7.0 mi WNW 6.9 mph - N/A   Overcast
6:55 PM 51.1 °F 49.3 °F 94% 29.50 in 10.0 mi WNW 6.9 mph - N/A   Overcast
7:15 PM 51.1 °F 49.3 °F 94% 29.50 in 10.0 mi WNW 10.4 mph 17.3 mph N/A   Overcast
7:35 PM 50.9 °F 48.4 °F 91% 29.50 in 10.0 mi NW 10.4 mph 17.3 mph N/A   Overcast
7:55 PM 50.9 °F 47.5 °F 88% 29.50 in 10.0 mi WNW 10.4 mph - N/A   Overcast
8:15 PM 50.4 °F 47.3 °F 89% 29.51 in 10.0 mi WNW 9.2 mph 17.3 mph N/A   Overcast
8:35 PM 50.0 °F 47.5 °F 91% 29.50 in 10.0 mi WNW 6.9 mph - N/A   Overcast
8:55 PM 50.0 °F 47.5 °F 91% 29.51 in 10.0 mi WNW 11.5 mph - N/A   Overcast
9:15 PM 49.8 °F 47.3 °F 91% 29.51 in 7.0 mi WNW 9.2 mph 16.1 mph N/A Rain Rain
9:35 PM 49.3 °F 47.1 °F 92% 29.50 in 10.0 mi West 10.4 mph 16.1 mph N/A   Overcast
9:55 PM 49.3 °F 46.8 °F 91% 29.50 in 10.0 mi WNW 11.5 mph 18.4 mph N/A   Overcast
10:35 PM 48.6 °F 44.8 °F 87% 29.50 in 10.0 mi WNW 9.2 mph 18.4 mph N/A   Mostly Cloudy
10:55 PM 48.2 °F 44.6 °F 87% 29.50 in 10.0 mi WNW 6.9 mph 16.1 mph N/A   Mostly Cloudy
11:15 PM 48.0 °F 44.8 °F 89% 29.49 in 10.0 mi WNW 9.2 mph - N/A   Overcast
11:35 PM 47.5 °F 44.2 °F 89% 29.49 in 10.0 mi WNW 10.4 mph - N/A   Overcast
11:55 PM 47.3 °F 43.9 °F 88% 29.49 in 10.0 mi WNW 9.2 mph - N/A   Overcast